Location: Czernica
(51.0462°N, 17.2458°E)
Time: 01:42:00
(UTC+01:00)

ISS - Pass Details

Date: 02 February 2019
Orbit: 403 x 411 km, 51.6° (Epoch: 20 February)

Event Time Altitude Azimuth Distance (km) Brightness Sun altitude
Rises 19:40:59 0° 285° (WNW) 2,342 1.3 -28.0°
Reaches altitude 10° 19:43:07 10° 279° (W) 1,479 0.0 -28.3°
Enters shadow 19:44:10 18° 271° (W) 1,082 -0.9 -28.5°
